Date String (YYYY-MM-DD hh:mm:ss) UTC,Instrument flags,Ambient pressure (hPa),Sample flow (lpm),Bypass flow (lpm),Sample temperature (°C),Ambient temperature (°C),ASC tube jacket temperature (°C),LED temperature (°C),Box temperature (°C),Sample RH (%),Span deviation,Mass concentration (μg/m³),Mass concentration (μg/m³),Mass concentration (μg/m³)
DateTimeUTC,F1_M11,P_M11,Q1_M11,Q2_M11,T1_M11,T2_M11,T3_M11,T4_M11,T5_M11,U1_M11,ZSPAN_M11,X2_M11,X0_M11,X1_M11
2022-09-13 10:00:00,,0826.7,5.00,0.00,29.9,28.4,00.0,38.7,31.7,10.6,0001.3,0008.80,0014.54,0008.34
2022-09-13 10:01:00,,0826.7,5.01,0.00,30.0,28.4,00.0,38.7,31.8,10.5,0001.3,0008.80,0014.41,0008.33
2022-09-13 10:02:00,,0826.7,5.00,0.00,30.0,28.5,00.0,38.8,31.8,10.9,0001.7,0008.78,0014.07,0008.32
2022-09-13 10:03:00,,0826.7,4.99,0.00,30.0,28.5,00.0,38.8,31.8,10.0,0001.9,0008.77,0014.35,0008.30
2022-09-13 10:04:00,,0826.7,5.00,0.00,30.0,28.5,00.0,38.8,31.8,10.0,0002.2,0008.77,0014.44,0008.30
2022-09-13 10:05:00,,0826.7,5.00,0.00,30.0,28.5,00.0,38.8,31.8,10.0,0002.2,0008.76,0014.17,0008.30
2022-09-13 10:06:00,,0826.7,5.00,0.00,30.0,28.5,00.0,38.8,31.7,09.7,0002.8,0008.78,0014.80,0008.30
2022-09-13 10:07:00,,0826.7,5.01,0.00,30.0,28.5,00.0,38.8,31.8,09.8,0003.2,0008.80,0014.85,0008.30
2022-09-13 10:08:00,,0826.7,5.00,0.00,30.0,28.4,00.0,38.8,31.8,09.6,0003.7,0008.80,0014.69,0008.30
2022-09-13 10:09:00,,0826.7,5.00,0.00,30.0,28.4,00.0,38.8,31.7,09.4,0003.6,0008.78,0014.02,0008.28
2022-09-13 10:10:00,,0826.7,4.99,0.00,29.9,28.4,00.0,38.8,31.7,09.3,0003.6,0008.75,0013.51,0008.26
2022-09-13 10:11:00,,0826.7,5.00,0.00,29.9,28.4,00.0,38.8,31.7,09.4,0003.3,0008.71,0013.73,0008.24
2022-09-13 10:12:00,,0826.7,5.01,0.00,29.9,28.4,00.0,38.8,31.7,09.4,0004.0,0008.67,0013.58,0008.24
2022-09-13 10:13:00,,0826.7,5.01,0.00,29.9,28.4,00.0,38.8,31.7,09.6,0004.6,0008.68,0013.53,0008.26
2022-09-13 10:14:00,,0826.7,4.99,0.00,29.9,28.4,00.0,38.8,31.7,09.3,0004.4,0008.68,0013.28,0008.25
2022-09-13 10:15:00,,0826.7,5.00,0.00,29.9,28.4,00.0,38.8,31.7,09.4,0004.6,0008.69,0013.14,0008.25
2022-09-13 10:16:00,,0826.7,5.00,0.00,29.9,28.4,00.0,38.8,31.7,09.6,0005.0,0008.74,0013.46,0008.25
2022-09-13 10:17:00,,0826.7,4.99,0.00,29.9,28.4,00.0,38.7,31.7,09.4,0004.4,0008.74,0012.70,0008.25
2022-09-13 10:18:00,,0826.7,5.01,0.00,29.9,28.4,00.0,38.8,31.7,09.5,0003.8,0008.77,0012.81,0008.26
2022-09-13 10:19:00,,0826.7,5.00,0.00,29.9,28.4,00.0,38.8,31.7,09.5,0003.1,0008.81,0012.97,0008.27
2022-09-13 10:20:00,,0826.7,5.00,0.00,29.9,28.3,00.0,38.8,31.7,09.6,0003.2,0008.78,0013.28,0008.27
2022-09-13 10:21:00,,0826.6,5.00,0.00,29.9,28.3,00.0,38.7,31.7,09.6,0003.0,0008.80,0013.58,0008.30
2022-09-13 10:22:00,,0826.7,4.99,0.00,29.9,28.3,00.0,38.7,31.6,09.6,0003.2,0008.86,0013.47,0008.35
2022-09-13 10:23:00,,0826.7,5.00,0.00,29.9,28.3,00.0,38.7,31.6,09.7,0003.2,0008.91,0013.55,0008.37
2022-09-13 10:24:00,,0826.7,5.00,0.00,29.9,28.3,00.0,38.7,31.6,09.8,0002.8,0008.96,0013.83,0008.40
2022-09-13 10:25:00,,0826.7,5.00,0.00,29.9,28.2,00.0,38.7,31.6,09.9,0002.1,0008.98,0014.24,0008.44
2022-09-13 10:26:00,,0826.7,5.00,0.00,29.9,28.2,00.0,38.7,31.6,09.8,0002.0,0008.97,0014.58,0008.46
2022-09-13 10:27:00,,0826.7,5.00,0.00,29.8,28.2,00.0,38.7,31.6,09.9,0001.5,0008.98,0014.39,0008.47
2022-09-13 10:28:00,,0826.7,5.00,0.00,29.8,28.2,00.0,38.7,31.6,09.9,0001.6,0009.01,0014.71,0008.49
2022-09-13 10:29:00,,0826.7,5.00,0.00,29.8,28.2,00.0,38.7,31.6,09.9,0001.8,0008.99,0014.87,0008.51
2022-09-13 10:30:00,,0826.7,4.99,0.00,29.8,28.2,00.0,38.7,31.5,09.9,0001.7,0008.99,0015.06,0008.52
2022-09-13 10:31:00,,0826.7,5.00,0.00,29.8,28.2,00.0,38.7,31.5,10.0,0001.3,0009.04,0014.85,0008.55
2022-09-13 10:32:00,,0826.7,5.00,0.00,29.8,28.2,00.0,38.7,31.5,10.3,0000.9,0009.06,0014.92,0008.56
2022-09-13 10:33:00,,0826.7,5.01,0.00,29.8,28.2,00.0,38.7,31.5,10.1,0000.7,0009.07,0014.94,0008.56
2022-09-13 10:34:00,,0826.7,5.00,0.00,29.8,28.2,00.0,38.7,31.5,10.2,0000.1,0009.06,0015.05,0008.56
2022-09-13 10:35:00,,0826.7,5.00,0.00,29.8,28.2,00.0,38.7,31.5,10.0,0000.1,0009.07,0015.19,0008.56
2022-09-13 10:36:00,,0826.7,4.98,0.00,29.8,28.2,00.0,38.7,31.5,10.1,0000.9,0009.06,0014.94,0008.55
2022-09-13 10:37:00,,0826.7,5.00,0.00,29.8,28.1,00.0,38.7,31.5,10.2,0000.6,0009.09,0014.45,0008.56
2022-09-13 10:38:00,,0826.7,5.01,0.00,29.8,28.1,00.0,38.6,31.4,10.2,-000.0,0009.06,0014.40,0008.55
2022-09-13 10:39:00,,0826.7,5.01,0.00,29.8,28.1,00.0,38.6,31.4,10.0,-000.0,0009.05,0014.17,0008.54
2022-09-13 10:40:00,,0826.7,5.01,0.00,29.7,28.1,00.0,38.6,31.4,10.0,-000.3,0009.05,0014.41,0008.53
2022-09-13 10:41:00,,0826.7,4.99,0.00,29.7,28.1,00.0,38.6,31.4,10.1,-000.7,0009.03,0014.24,0008.52
2022-09-13 10:42:00,,0826.7,5.00,0.00,29.7,28.1,00.0,38.6,31.4,10.0,-000.5,0009.00,0014.10,0008.50
2022-09-13 10:43:00,,0826.7,5.01,0.00,29.7,28.1,00.0,38.6,31.4,09.8,-000.5,0008.99,0013.77,0008.49
2022-09-13 10:44:00,,0826.6,5.01,0.00,29.7,28.0,00.0,38.6,31.3,09.9,-000.4,0008.95,0013.79,0008.48
2022-09-13 10:45:00,,0826.7,5.01,0.00,29.7,28.0,00.0,38.6,31.3,09.8,0000.0,0008.94,0013.67,0008.47
2022-09-13 10:46:00,,0826.6,5.01,0.00,29.6,27.9,00.0,38.6,31.3,09.8,0000.1,0008.95,0013.38,0008.48
2022-09-13 10:47:00,,0826.7,5.00,0.00,29.6,28.0,00.0,38.5,31.3,09.8,0000.1,0008.95,0013.25,0008.49
2022-09-13 10:48:00,,0826.6,5.00,0.00,29.6,28.0,00.0,38.5,31.3,09.8,0000.5,0008.92,0013.19,0008.49
2022-09-13 10:49:00,,0826.7,5.00,0.00,29.6,28.0,00.0,38.5,31.3,09.7,0001.0,0008.93,0013.21,0008.50
2022-09-13 10:50:00,,0826.7,5.00,0.00,29.6,28.0,00.0,38.5,31.3,09.8,0000.8,0008.92,0013.13,0008.52
2022-09-13 10:51:00,,0826.7,5.00,0.00,29.6,28.0,00.0,38.5,31.3,09.8,0000.9,0008.92,0012.55,0008.52
2022-09-13 10:52:00,,0826.7,5.01,0.00,29.6,28.0,00.0,38.5,31.3,09.9,0001.1,0008.93,0012.64,0008.53
2022-09-13 10:53:00,,0826.7,5.00,0.00,29.6,28.0,00.0,38.5,31.3,10.0,0000.9,0008.97,0012.58,0008.54
2022-09-13 10:54:00,,0826.7,4.98,0.00,29.6,28.0,00.0,38.5,31.3,10.1,0000.9,0008.98,0012.56,0008.55
2022-09-13 10:55:00,,0826.7,5.00,0.00,29.6,28.0,00.0,38.5,31.3,10.1,0000.6,0008.98,0012.33,0008.56
2022-09-13 10:56:00,,0826.7,5.01,0.00,29.6,27.9,00.0,38.5,31.3,10.1,0001.0,0008.99,0012.36,0008.57
2022-09-13 10:57:00,,0826.7,5.01,0.00,29.6,27.9,00.0,38.4,31.3,10.1,0000.8,0008.95,0012.24,0008.57
2022-09-13 10:58:00,,0826.6,5.00,0.00,29.6,27.9,00.0,38.4,31.3,10.2,0000.9,0008.92,0012.18,0008.56
2022-09-13 10:59:00,,0826.7,5.00,0.00,29.6,27.9,00.0,38.4,31.3,10.1,0001.0,0008.94,0012.24,0008.56
